#timestamp,LO_Frequency,Hit,StdDev 
1553410815.4,286046998.1,N
1553410835.2,286047000.4,N
1553410855.1,286047000.1,N
1553410856.0,286047000.1,N
1553410875.8,286047002.7,N
1553410895.6,286047000.3,N
1553410915.5,286047004.4,N
1553410935.3,286046998.1,N
1553410955.2,286046996.9,N
1553410975.9,286046999.2,N
1553410995.7,286046999.1,N
1553411015.6,286046999.2,N
1553411035.5,286046998.5,N
1553411055.4,286047000.0,N
1553411075.2,286046999.8,N
1553411095.0,286047000.9,N
1553411095.9,286047000.9,N
1553411115.8,286047000.9,N
1553411135.6,286047002.8,N
1553411155.4,286046999.8,N
1553411175.3,286047002.2,N
1553411195.1,286047000.5,N
1553411215.9,286046999.7,N
1553411235.7,286047001.7,N
1553411255.5,286047000.2,N
1553411275.4,286047000.0,N
1553411295.2,286047000.8,N
1553411315.0,286047000.5,N
1553411315.9,286047000.5,N
1553411335.8,286047002.6,N
1553411355.6,286047000.7,N
1553411375.5,286047000.9,N
1553411395.3,286046998.9,N
1553411415.1,286047000.2,N
1553411435.9,286047000.9,N
1553411455.7,286047002.8,N
1553411475.5,286047002.2,N
1553411495.4,286047000.2,N
1553411515.2,286047000.9,N
1553411535.1,286046999.9,N
1553411536.0,286046999.9,N
1553411555.8,286046999.7,N
1553411575.6,286047000.1,N
1553411595.5,286047000.3,N
1553411615.3,286047000.2,N
1553411635.1,286046998.6,N
1553411655.9,286047000.0,N
1553411675.7,286047002.4,N
1553411695.6,286047001.0,N
1553411715.4,286046996.6,Y
1553411735.2,286046998.3,P
1553411755.1,286046998.7,N
1553411756.0,286046998.7,N
1553411775.8,286046998.8,N
1553411795.7,286047001.1,N
1553411815.5,286047002.3,N
1553411835.3,286047001.5,N
1553411855.2,286047000.5,N
1553411875.3,286046998.6,N
1553411895.2,286046999.1,N
1553411915.0,286047000.5,N
1553411915.9,286047000.5,N
1553411935.8,286047002.7,N
1553411955.4,286046998.9,N
1553411975.3,286046998.3,N
1553411995.1,286046998.7,N
1553412015.9,286046998.2,N
1553412035.7,286046996.6,N
1553412055.5,286046997.0,N
1553412075.4,286046996.7,N
1553412095.2,286047000.9,N
1553412115.0,286047000.2,N
1553412115.9,286047000.2,N
1553412135.0,286047002.2,N
1553412135.9,286047002.2,N
1553412155.8,286047001.7,N
1553412175.6,286047001.2,N
1553412195.4,286046999.5,N
1553412215.3,286046999.6,N
1553412235.1,286046998.6,N
1553412255.8,286046998.4,N
1553412275.7,286046998.4,N
1553412295.5,286047000.1,N
1553412315.4,286047000.7,N
1553412335.2,286047001.1,N
1553412355.0,286046999.1,N
1553412355.9,286046999.1,N
1553412375.8,286046996.5,N
1553412395.6,286046997.7,N
1553412415.5,286046997.8,N
1553412435.3,286046998.4,N
1553412455.1,286046998.3,N
1553412475.9,286047002.7,N
1553412495.7,286047000.7,N
1553412515.5,286047002.4,N
1553412535.4,286047000.8,N
1553412555.2,286046998.2,N
1553412575.1,286046999.2,N
1553412576.0,286046999.2,N
1553412595.8,286046998.6,N
1553412615.6,286047000.8,N
1553412635.5,286046998.4,N
1553412655.3,286046996.8,N
1553412675.1,286046995.7,N
1553412695.9,286046995.1,N
1553412715.7,286046997.1,N
1553412735.6,286046999.3,N
1553412755.4,286046998.8,N
1553412775.2,286046999.0,N
1553412795.1,286046998.7,N
1553412796.0,286046998.7,N
1553412815.8,286046999.1,N
1553412835.6,286046999.2,N
1553412855.5,286047001.1,N
1553412875.3,286046998.2,N
1553412895.2,286047002.4,N
1553412915.0,286047001.1,N
1553412915.9,286047001.1,N
1553412935.7,286047002.8,N
1553412955.6,286047002.7,N
1553412975.4,286047002.4,N
1553412995.3,286047003.6,N
1553413015.1,286047001.8,N
1553413016.0,286047001.8,N
1553413035.8,286047004.1,N
1553413055.7,286047001.7,N
1553413075.5,286047002.8,N
1553413095.3,286047002.6,N
1553413115.2,286047002.1,N
1553413135.0,286046999.9,N
1553413135.9,286046999.9,N
1553413155.8,286047000.4,N
1553413175.6,286047000.9,N
1553413195.4,286046998.2,N
1553413215.3,286047001.2,N
1553413235.1,286046998.6,N
1553413255.9,286046999.8,N
1553413275.7,286046999.8,N
1553413295.5,286047000.6,N
1553413315.4,286047001.0,N
1553413335.2,286046998.9,N
1553413355.0,286046999.1,N
1553413355.9,286046999.1,N
1553413375.8,286046998.5,N
1553413395.6,286047001.5,N
1553413415.5,286047003.2,N
1553413435.3,286047001.4,N
1553413455.1,286047004.4,N
1553413475.9,286047001.1,N
1553413495.7,286046997.3,N
1553413515.5,286046996.5,N
1553413535.4,286046999.6,N
1553413555.2,286046999.6,N
1553413575.1,286046998.4,N
1553413576.0,286046998.4,N
1553413595.8,286046996.8,N
1553413615.6,286047001.0,N
1553413635.5,286047003.3,N
1553413655.3,286047002.9,N
1553413675.2,286047001.3,N
1553413695.9,286047001.9,N
1553413715.7,286047003.7,N
1553413735.6,286047004.0,N
1553413755.4,286047005.8,N
1553413775.3,286047005.0,N
1553413795.1,286047004.7,N
1553413796.0,286047004.7,N
1553413815.8,286047005.9,N
1553413835.7,286047005.5,N
1553413855.5,286047003.2,N
1553413875.3,286047003.7,N
1553413895.2,286047002.0,N
1553413915.0,286047002.1,N
1553413915.9,286047002.1,N
1553413935.8,286047000.6,N
1553413955.6,286047001.1,N
1553413975.4,286047000.8,N
1553413995.3,286047002.4,N
1553414015.1,286047000.1,N
1553414035.9,286046999.8,N
1553414055.7,286046999.8,N
1553414075.5,286047000.6,N
1553414095.4,286047001.1,N
1553414115.2,286046998.8,N
1553414135.0,286046996.6,N
1553414136.0,286046996.6,N
1553414155.8,286046996.7,N
1553414175.6,286046997.3,N
1553414195.5,286046998.9,N
1553414215.3,286046997.9,N
1553414235.1,286046996.0,N
1553414255.9,286046997.5,N
1553414275.7,286046997.8,N
1553414295.5,286046997.6,N
1553414315.4,286046997.3,N
1553414335.2,286046996.7,N
1553414355.1,286046998.9,N
1553414356.0,286046998.9,N
1553414375.8,286046998.2,N
1553414395.6,286047001.2,N
